Location: Mahannah Oil Field
(37.4664°N, 96.6003°W)
Time: 01:59:50
(UTC+00:00)

deb Explorer IX - Pass Details

Date: 22 January 2021
Orbit: 537 x 1102 km, 38.8° (Epoch: 25 February)

Event Time Altitude Azimuth Distance (km) Brightness Sun altitude
Rises 22:04:46 0° 194° (SSW) 3,828 ? 15.2°
Reaches altitude 10° 22:08:59 10° 172° (S) 2,795 ? 14.5°
Maximum altitude 22:12:24 14° 142° (SE) 2,400 ? 14.0°
Drops below altitude 10° 22:15:38 10° 111° (ESE) 2,619 ? 13.5°
Sets 22:19:20 0° 88° (E) 3,438 ? 12.9°
